QPF
0.02 0.00 0.00 0.00 0.01 0.01 0.01 0.02 0.02 0.01 0.01 0.01 0.01 0.00 0.00 0.00 0.00 0.00 0.00 0.00 0.00 0.00 0.00 0.00 0.00 0.00 0.00 0.00 0.00 0.00 0.00 0.00 0.00 0.00 0.00 0.00 0.00 0.00 0.00 0.01 0.06 0.15 0.06
0.01 0.01 0.00 0.00 0.00 0.01 0.01 0.02 0.02 0.02 0.01 0.01 0.01 0.01 0.01 0.00 0.00 0.00 0.00 0.00 0.00 0.00 0.00 0.00 0.00 0.00 0.00 0.00 0.00 0.00 0.00 0.00 0.00 0.00 0.00 0.01 0.00 0.00 0.00 0.01 0.08 0.15 0.05
0.02 0.01 0.00 0.00 0.00 0.00 0.01 0.01 0.02 0.01 0.01 0.01 0.01 0.01 0.01 0.01 0.01 0.01 0.00 0.00 0.00 0.00 0.00 0.00 0.00 0.00 0.00 0.00 0.00 0.00 0.00 0.00 0.00 0.00 0.04 0.10 0.05 0.01 0.01 0.00 0.02 0.04 0.02
0.02 0.02 0.01 0.00 0.00 0.01 0.01 0.02 0.02 0.01 0.01 0.01 0.01 0.01 0.01 0.01 0.01 0.01 0.00 0.00 0.00 0.01 0.00 0.00 0.00 0.00 0.00 0.00 0.00 0.00 0.00 0.00 0.00 0.01 0.09 0.14 0.10 0.06 0.02 0.01 0.01 0.01 0.02
0.01 0.02 0.01 0.01 0.00 0.01 0.01 0.02 0.02 0.01 0.02 0.02 0.02 0.02 0.01 0.01 0.01 0.01 0.01 0.00 0.00 0.01 0.01 0.00 0.00 0.00 0.00 0.00 0.00 0.00 0.00 0.00 0.01 0.01 0.05 0.09 0.14 0.08 0.02 0.01 0.01 0.01 0.01
0.02 0.02 0.01 0.01 0.01 0.01 0.01 0.02 0.02 0.02 0.02 0.02 0.02 0.02 0.01 0.01 0.01 0.01 0.01 0.01 0.01 0.01 0.00 0.00 0.00 0.00 0.00 0.00 0.00 0.00 0.00 0.00 0.01 0.02 0.05 0.10 0.16 0.10 0.03 0.02 0.02 0.02 0.02
0.04 0.04 0.02 0.02 0.02 0.02 0.02 0.02 0.03 0.03 0.04 0.03 0.03 0.02 0.02 0.01 0.01 0.01 0.01 0.01 0.01 0.01 0.01 0.02 0.01 0.01 0.01 0.01 0.00 0.00 0.00 0.00 0.02 0.04 0.06 0.09 0.14 0.11 0.05 0.04 0.03 0.03 0.03
0.04 0.06 0.04 0.02 0.03 0.04 0.03 0.04 0.04 0.03 0.03 0.03 0.03 0.02 0.02 0.02 0.02 0.02 0.01 0.01 0.01 0.01 0.01 0.01 0.01 0.01 0.01 0.01 0.01 0.01 0.01 0.01 0.02 0.05 0.04 0.10 0.13 0.09 0.06 0.04 0.04 0.04 0.04
0.03 0.05 0.05 0.04 0.03 0.03 0.04 0.04 0.04 0.03 0.03 0.03 0.02 0.02 0.02 0.02 0.02 0.02 0.02 0.02 0.02 0.01 0.01 0.01 0.01 0.01 0.01 0.01 0.01 0.01 0.01 0.01 0.02 0.03 0.05 0.10 0.15 0.15 0.09 0.06 0.04 0.04 0.05
0.04 0.06 0.07 0.08 0.08 0.05 0.04 0.02 0.02 0.02 0.02 0.02 0.02 0.02 0.02 0.03 0.04 0.03 0.03 0.03 0.03 0.02 0.01 0.01 0.01 0.01 0.01 0.01 0.01 0.01 0.01 0.02 0.02 0.06 0.07 0.11 0.13 0.13 0.11 0.08 0.07 0.07 0.07
0.04 0.06 0.06 0.06 0.06 0.05 0.05 0.02 0.02 0.03 0.03 0.03 0.03 0.02 0.03 0.05 0.07 0.08 0.05 0.04 0.04 0.03 0.03 0.02 0.01 0.01 0.01 0.01 0.01 0.01 0.02 0.02 0.03 0.07 0.11 0.14 0.11 0.10 0.10 0.10 0.10 0.09 0.08
0.03 0.04 0.05 0.05 0.06 0.06 0.06 0.07 0.07 0.06 0.06 0.05 0.07 0.06 0.07 0.09 0.10 0.09 0.09 0.08 0.05 0.03 0.03 0.03 0.02 0.02 0.03 0.05 0.06 0.04 0.03 0.03 0.04 0.07 0.12 0.16 0.14 0.10 0.09 0.09 0.10 0.10 0.09
0.04 0.04 0.04 0.05 0.06 0.07 0.09 0.09 0.08 0.08 0.08 0.07 0.07 0.09 0.09 0.10 0.10 0.09 0.11 0.09 0.07 0.06 0.07 0.07 0.05 0.05 0.05 0.07 0.07 0.07 0.05 0.05 0.07 0.09 0.14 0.17 0.18 0.13 0.10 0.09 0.10 0.10 0.09
0.03 0.03 0.03 0.04 0.05 0.05 0.07 0.07 0.06 0.06 0.07 0.07 0.08 0.07 0.08 0.08 0.08 0.09 0.09 0.07 0.07 0.08 0.10 0.10 0.09 0.06 0.04 0.04 0.06 0.08 0.06 0.05 0.06 0.11 0.22 0.14 0.11 0.09 0.09 0.09 0.10 0.11 0.12
0.03 0.03 0.03 0.04 0.04 0.04 0.06 0.05 0.05 0.05 0.06 0.06 0.06 0.05 0.06 0.07 0.07 0.08 0.07 0.07 0.07 0.07 0.08 0.09 0.08 0.08 0.08 0.07 0.06 0.07 0.06 0.06 0.07 0.08 0.09 0.07 0.07 0.07 0.08 0.09 0.10 0.11 0.14
0.04 0.05 0.05 0.05 0.06 0.06 0.08 0.08 0.06 0.05 0.06 0.05 0.05 0.05 0.05 0.07 0.07 0.07 0.07 0.07 0.07 0.07 0.06 0.06 0.08 0.09 0.09 0.08 0.06 0.05 0.04 0.03 0.05 0.07 0.06 0.06 0.05 0.06 0.07 0.08 0.09 0.10 0.12
0.06 0.08 0.11 0.11 0.13 0.13 0.14 0.13 0.10 0.06 0.04 0.04 0.05 0.06 0.05 0.06 0.06 0.06 0.07 0.06 0.05 0.05 0.05 0.05 0.07 0.09 0.08 0.07 0.06 0.05 0.05 0.05 0.05 0.06 0.06 0.06 0.05 0.08 0.08 0.08 0.09 0.10 0.12
0.06 0.07 0.11 0.11 0.14 0.16 0.15 0.15 0.13 0.10 0.06 0.05 0.07 0.07 0.05 0.06 0.06 0.07 0.06 0.06 0.06 0.04 0.05 0.06 0.07 0.08 0.09 0.09 0.08 0.07 0.06 0.06 0.05 0.05 0.05 0.06 0.07 0.10 0.12 0.10 0.09 0.08 0.10
0.04 0.04 0.06 0.06 0.12 0.17 0.17 0.14 0.12 0.10 0.11 0.07 0.07 0.07 0.07 0.07 0.06 0.06 0.08 0.07 0.06 0.05 0.06 0.06 0.07 0.08 0.08 0.09 0.07 0.08 0.07 0.08 0.07 0.06 0.06 0.08 0.11 0.13 0.12 0.09 0.07 0.07 0.08
0.04 0.04 0.05 0.06 0.08 0.16 0.22 0.20 0.12 0.11 0.11 0.09 0.07 0.07 0.07 0.06 0.05 0.06 0.08 0.07 0.06 0.06 0.06 0.07 0.08 0.09 0.08 0.07 0.06 0.08 0.08 0.09 0.12 0.09 0.05 0.05 0.09 0.11 0.12 0.10 0.10 0.07 0.07
0.04 0.05 0.06 0.07 0.06 0.09 0.12 0.15 0.14 0.11 0.08 0.06 0.05 0.05 0.05 0.05 0.06 0.06 0.07 0.07 0.06 0.06 0.06 0.06 0.07 0.08 0.07 0.07 0.08 0.07 0.06 0.06 0.09 0.08 0.05 0.05 0.07 0.09 0.13 0.12 0.10 0.10 0.09
0.03 0.04 0.04 0.05 0.07 0.07 0.09 0.10 0.10 0.09 0.07 0.05 0.04 0.05 0.05 0.05 0.06 0.06 0.06 0.07 0.07 0.07 0.07 0.07 0.07 0.08 0.07 0.07 0.08 0.08 0.08 0.07 0.06 0.07 0.08 0.07 0.06 0.09 0.14 0.16 0.10 0.10 0.11
0.02 0.03 0.03 0.05 0.07 0.08 0.09 0.07 0.05 0.05 0.04 0.04 0.04 0.05 0.04 0.04 0.05 0.05 0.05 0.06 0.07 0.07 0.07 0.06 0.07 0.08 0.07 0.08 0.09 0.11 0.11 0.10 0.08 0.07 0.09 0.09 0.09 0.10 0.09 0.09 0.09 0.09 0.13
0.04 0.04 0.06 0.06 0.07 0.08 0.09 0.07 0.06 0.04 0.04 0.04 0.05 0.05 0.05 0.04 0.04 0.06 0.07 0.07 0.07 0.07 0.08 0.05 0.06 0.07 0.07 0.07 0.10 0.11 0.11 0.11 0.10 0.08 0.07 0.07 0.08 0.10 0.07 0.07 0.09 0.09 0.11
0.08 0.08 0.08 0.08 0.09 0.10 0.10 0.07 0.05 0.03 0.04 0.04 0.05 0.05 0.05 0.04 0.04 0.04 0.05 0.07 0.07 0.07 0.06 0.06 0.07 0.07 0.07 0.07 0.08 0.10 0.10 0.11 0.11 0.10 0.07 0.07 0.07 0.07 0.06 0.06 0.07 0.09 0.10
0.09 0.08 0.06 0.06 0.07 0.06 0.04 0.03 0.03 0.03 0.03 0.04 0.05 0.04 0.04 0.04 0.05 0.04 0.03 0.04 0.05 0.05 0.05 0.05 0.05 0.05 0.06 0.07 0.07 0.08 0.09 0.09 0.09 0.10 0.08 0.08 0.07 0.07 0.08 0.10 0.11 0.09 0.08
MSLP
1011.26 1011.35 1011.63 1012.07 1012.61 1013.16 1013.64 1013.98 1014.17 1014.25 1014.27 1014.32 1014.43 1014.65 1014.96 1015.32 1015.67 1015.95 1016.13 1016.21 1016.19 1016.14 1016.09 1016.08 1016.11 1016.19 1016.29 1016.37 1016.41 1016.40 1016.33 1016.25 1016.17 1016.13 1016.14 1016.21 1016.34 1016.50 1016.68 1016.85 1017.01 1017.15 1017.29
1011.10 1011.29 1011.67 1012.23 1012.87 1013.48 1013.99 1014.34 1014.51 1014.56 1014.56 1014.58 1014.69 1014.91 1015.24 1015.61 1015.97 1016.26 1016.43 1016.49 1016.46 1016.38 1016.30 1016.26 1016.27 1016.32 1016.40 1016.47 1016.49 1016.48 1016.42 1016.34 1016.26 1016.22 1016.24 1016.31 1016.43 1016.59 1016.77 1016.94 1017.12 1017.28 1017.44
1010.91 1011.19 1011.67 1012.33 1013.05 1013.73 1014.28 1014.64 1014.81 1014.85 1014.83 1014.84 1014.94 1015.15 1015.45 1015.80 1016.13 1016.39 1016.54 1016.59 1016.55 1016.47 1016.39 1016.35 1016.36 1016.42 1016.49 1016.54 1016.56 1016.53 1016.46 1016.38 1016.30 1016.26 1016.27 1016.34 1016.46 1016.62 1016.80 1016.99 1017.19 1017.38 1017.58
1010.75 1011.10 1011.68 1012.41 1013.19 1013.91 1014.48 1014.85 1015.03 1015.08 1015.06 1015.06 1015.15 1015.33 1015.60 1015.90 1016.19 1016.40 1016.52 1016.55 1016.51 1016.45 1016.41 1016.40 1016.45 1016.52 1016.59 1016.64 1016.64 1016.59 1016.50 1016.39 1016.30 1016.25 1016.25 1016.31 1016.43 1016.59 1016.77 1016.98 1017.21 1017.44 1017.69
1010.66 1011.08 1011.72 1012.49 1013.30 1014.03 1014.60 1014.97 1015.16 1015.21 1015.21 1015.22 1015.30 1015.47 1015.70 1015.96 1016.18 1016.35 1016.43 1016.44 1016.42 1016.39 1016.40 1016.45 1016.54 1016.64 1016.73 1016.77 1016.75 1016.66 1016.53 1016.39 1016.27 1016.19 1016.17 1016.22 1016.33 1016.49 1016.68 1016.91 1017.16 1017.44 1017.73
1010.68 1011.15 1011.82 1012.61 1013.40 1014.11 1014.65 1015.00 1015.18 1015.24 1015.26 1015.30 1015.41 1015.57 1015.78 1016.00 1016.17 1016.28 1016.33 1016.33 1016.32 1016.33 1016.40 1016.51 1016.65 1016.79 1016.89 1016.92 1016.86 1016.73 1016.55 1016.36 1016.20 1016.09 1016.05 1016.08 1016.17 1016.32 1016.52 1016.76 1017.04 1017.36 1017.70
1010.82 1011.33 1012.01 1012.77 1013.52 1014.17 1014.65 1014.95 1015.12 1015.19 1015.24 1015.33 1015.47 1015.65 1015.86 1016.05 1016.18 1016.25 1016.26 1016.24 1016.24 1016.29 1016.40 1016.57 1016.75 1016.92 1017.03 1017.03 1016.94 1016.76 1016.53 1016.29 1016.08 1015.93 1015.87 1015.88 1015.96 1016.11 1016.30 1016.55 1016.84 1017.18 1017.55
1011.05 1011.59 1012.26 1012.99 1013.67 1014.23 1014.63 1014.88 1015.01 1015.09 1015.18 1015.31 1015.50 1015.73 1015.95 1016.13 1016.23 1016.26 1016.23 1016.19 1016.18 1016.24 1016.38 1016.58 1016.79 1016.98 1017.08 1017.06 1016.93 1016.71 1016.43 1016.14 1015.89 1015.72 1015.64 1015.64 1015.71 1015.85 1016.04 1016.28 1016.57 1016.91 1017.30
1011.35 1011.92 1012.59 1013.27 1013.87 1014.33 1014.64 1014.82 1014.91 1014.99 1015.11 1015.29 1015.54 1015.80 1016.05 1016.22 1016.30 1016.29 1016.22 1016.14 1016.11 1016.15 1016.29 1016.49 1016.71 1016.89 1016.99 1016.95 1016.79 1016.54 1016.22 1015.91 1015.64 1015.46 1015.37 1015.37 1015.44 1015.58 1015.76 1015.99 1016.27 1016.60 1016.98
1011.71 1012.31 1012.97 1013.61 1014.13 1014.50 1014.72 1014.82 1014.87 1014.94 1015.08 1015.30 1015.58 1015.89 1016.15 1016.32 1016.37 1016.32 1016.20 1016.07 1015.99 1016.00 1016.10 1016.28 1016.49 1016.66 1016.73 1016.68 1016.51 1016.24 1015.91 1015.59 1015.33 1015.16 1015.08 1015.09 1015.18 1015.32 1015.50 1015.72 1015.97 1016.27 1016.62
1012.13 1012.75 1013.40 1014.00 1014.46 1014.75 1014.88 1014.92 1014.92 1014.97 1015.10 1015.34 1015.65 1015.97 1016.23 1016.39 1016.42 1016.33 1016.15 1015.96 1015.83 1015.78 1015.84 1015.97 1016.14 1016.29 1016.34 1016.29 1016.11 1015.84 1015.53 1015.23 1014.98 1014.84 1014.79 1014.83 1014.94 1015.09 1015.27 1015.48 1015.70 1015.97 1016.27
1012.59 1013.23 1013.88 1014.44 1014.85 1015.07 1015.14 1015.12 1015.07 1015.09 1015.21 1015.43 1015.74 1016.05 1016.30 1016.44 1016.44 1016.30 1016.08 1015.84 1015.64 1015.53 1015.53 1015.61 1015.74 1015.84 1015.88 1015.82 1015.65 1015.40 1015.11 1014.84 1014.63 1014.52 1014.51 1014.58 1014.72 1014.89 1015.08 1015.27 1015.47 1015.70 1015.95
1013.11 1013.76 1014.39 1014.92 1015.28 1015.46 1015.48 1015.41 1015.33 1015.31 1015.39 1015.58 1015.85 1016.13 1016.36 1016.47 1016.44 1016.27 1016.02 1015.73 1015.49 1015.32 1015.26 1015.28 1015.35 1015.42 1015.43 1015.36 1015.19 1014.97 1014.71 1014.47 1014.30 1014.22 1014.23 1014.33 1014.49 1014.68 1014.88 1015.07 1015.25 1015.44 1015.65
1013.69 1014.31 1014.91 1015.41 1015.73 1015.88 1015.88 1015.78 1015.67 1015.61 1015.65 1015.79 1016.00 1016.23 1016.42 1016.49 1016.44 1016.27 1016.00 1015.69 1015.42 1015.21 1015.09 1015.06 1015.07 1015.09 1015.06 1014.97 1014.81 1014.59 1014.35 1014.13 1013.98 1013.91 1013.94 1014.05 1014.23 1014.42 1014.63 1014.82 1014.99 1015.16 1015.34
1014.29 1014.86 1015.42 1015.87 1016.17 1016.30 1016.29 1016.19 1016.06 1015.97 1015.96 1016.05 1016.19 1016.36 1016.49 1016.54 1016.48 1016.31 1016.05 1015.76 1015.48 1015.25 1015.09 1015.00 1014.95 1014.91 1014.83 1014.71 1014.52 1014.29 1014.05 1013.83 1013.67 1013.59 1013.61 1013.71 1013.87 1014.06 1014.27 1014.46 1014.63 1014.80 1014.95
1014.89 1015.39 1015.88 1016.28 1016.55 1016.69 1016.69 1016.61 1016.49 1016.38 1016.34 1016.36 1016.43 1016.53 1016.61 1016.64 1016.58 1016.43 1016.21 1015.96 1015.69 1015.46 1015.27 1015.13 1015.01 1014.89 1014.75 1014.57 1014.34 1014.07 1013.80 1013.55 1013.35 1013.23 1013.20 1013.26 1013.39 1013.56 1013.75 1013.94 1014.12 1014.29 1014.44
1015.46 1015.88 1016.28 1016.63 1016.88 1017.03 1017.07 1017.02 1016.93 1016.83 1016.75 1016.72 1016.72 1016.75 1016.78 1016.78 1016.73 1016.62 1016.46 1016.25 1016.03 1015.80 1015.59 1015.40 1015.21 1015.01 1014.79 1014.53 1014.24 1013.91 1013.58 1013.27 1013.02 1012.83 1012.73 1012.72 1012.79 1012.92 1013.08 1013.27 1013.45 1013.62 1013.79
1016.01 1016.33 1016.64 1016.93 1017.17 1017.33 1017.42 1017.43 1017.38 1017.30 1017.20 1017.12 1017.06 1017.02 1016.99 1016.97 1016.93 1016.86 1016.75 1016.60 1016.42 1016.22 1015.99 1015.75 1015.50 1015.21 1014.90 1014.56 1014.19 1013.79 1013.40 1013.02 1012.68 1012.42 1012.23 1012.14 1012.13 1012.19 1012.31 1012.48 1012.66 1012.84 1013.02
1016.54 1016.77 1017.00 1017.23 1017.45 1017.64 1017.77 1017.84 1017.85 1017.79 1017.68 1017.55 1017.42 1017.31 1017.23 1017.17 1017.13 1017.09 1017.03 1016.94 1016.80 1016.62 1016.39 1016.11 1015.79 1015.43 1015.04 1014.62 1014.17 1013.72 1013.26 1012.81 1012.40 1012.05 1011.77 1011.58 1011.48 1011.47 1011.53 1011.66 1011.82 1012.00 1012.20
1017.09 1017.24 1017.39 1017.56 1017.76 1017.97 1018.15 1018.27 1018.32 1018.29 1018.17 1018.00 1017.80 1017.62 1017.47 1017.37 1017.31 1017.28 1017.25 1017.20 1017.11 1016.94 1016.71 1016.40 1016.04 1015.62 1015.17 1014.69 1014.20 1013.69 1013.19 1012.69 1012.22 1011.80 1011.43 1011.15 1010.96 1010.86 1010.85 1010.92 1011.04 1011.21 1011.40
1017.71 1017.78 1017.86 1017.97 1018.14 1018.34 1018.55 1018.72 1018.81 1018.78 1018.65 1018.44 1018.17 1017.91 1017.69 1017.52 1017.43 1017.39 1017.38 1017.36 1017.29 1017.14 1016.92 1016.60 1016.21 1015.77 1015.29 1014.78 1014.27 1013.75 1013.23 1012.71 1012.20 1011.73 1011.30 1010.93 1010.64 1010.45 1010.36 1010.36 1010.43 1010.55 1010.71
1018.39 1018.41 1018.41 1018.46 1018.58 1018.77 1018.98 1019.17 1019.26 1019.24 1019.09 1018.83 1018.50 1018.16 1017.86 1017.63 1017.49 1017.42 1017.40 1017.39 1017.34 1017.21 1017.00 1016.69 1016.31 1015.87 1015.39 1014.89 1014.39 1013.89 1013.39 1012.88 1012.37 1011.86 1011.38 1010.95 1010.58 1010.30 1010.12 1010.03 1010.03 1010.09 1010.20
1019.13 1019.10 1019.03 1019.00 1019.06 1019.21 1019.40 1019.57 1019.66 1019.63 1019.45 1019.15 1018.76 1018.35 1017.98 1017.68 1017.48 1017.38 1017.34 1017.32 1017.28 1017.17 1016.97 1016.69 1016.33 1015.92 1015.47 1015.02 1014.57 1014.11 1013.65 1013.18 1012.69 1012.18 1011.68 1011.20 1010.76 1010.40 1010.13 1009.95 1009.86 1009.84 1009.89
1019.86 1019.78 1019.64 1019.53 1019.51 1019.59 1019.73 1019.87 1019.95 1019.90 1019.70 1019.36 1018.94 1018.48 1018.05 1017.69 1017.44 1017.29 1017.23 1017.19 1017.14 1017.04 1016.87 1016.62 1016.30 1015.93 1015.54 1015.14 1014.75 1014.36 1013.96 1013.54 1013.09 1012.60 1012.09 1011.58 1011.10 1010.67 1010.32 1010.06 1009.88 1009.78 1009.74
1020.48 1020.35 1020.14 1019.96 1019.86 1019.87 1019.94 1020.04 1020.08 1020.01 1019.80 1019.46 1019.02 1018.53 1018.07 1017.68 1017.39 1017.20 1017.10 1017.04 1016.98 1016.88 1016.72 1016.49 1016.21 1015.88 1015.55 1015.21 1014.89 1014.56 1014.22 1013.86 1013.45 1012.99 1012.49 1011.98 1011.47 1011.00 1010.59 1010.26 1010.00 1009.83 1009.72
1020.90 1020.73 1020.46 1020.20 1020.03 1019.97 1019.98 1020.03 1020.04 1019.96 1019.76 1019.43 1019.00 1018.53 1018.06 1017.66 1017.34 1017.13 1016.99 1016.90 1016.81 1016.70 1016.54 1016.32 1016.06 1015.77 1015.47 1015.18 1014.90 1014.63 1014.34 1014.02 1013.65 1013.23 1012.76 1012.26 1011.76 1011.27 1010.84 1010.46 1010.16 1009.93 1009.76
Thickness
5811 5806 5800 5798 5795 5793 5790 5787 5785 5782 5780 5777 5775 5773 5771 5769 5767 5765 5763 5762 5760 5758 5757 5756 5754 5753 5752 5752 5751 5751 5750 5750 5749 5749 5749 5748 5747 5746 5745 5744 5743 5742 5741
5812 5804 5798 5795 5792 5790 5787 5784 5782 5779 5776 5774 5771 5769 5767 5765 5763 5761 5760 5758 5757 5755 5754 5753 5752 5751 5750 5749 5748 5748 5747 5747 5746 5746 5746 5746 5745 5744 5743 5742 5741 5739 5738
5810 5802 5796 5793 5790 5787 5784 5781 5779 5776 5773 5771 5768 5766 5764 5762 5759 5758 5756 5755 5753 5752 5751 5750 5749 5748 5747 5746 5746 5745 5745 5745 5744 5744 5744 5744 5743 5742 5741 5739 5738 5737 5735
5807 5800 5795 5790 5787 5784 5781 5778 5775 5772 5770 5767 5765 5762 5760 5758 5756 5754 5753 5751 5750 5749 5748 5747 5746 5745 5744 5744 5743 5743 5742 5742 5742 5742 5744 5744 5743 5740 5739 5737 5735 5734 5733
5804 5797 5790 5787 5783 5780 5777 5774 5771 5769 5766 5763 5761 5758 5756 5754 5752 5751 5749 5748 5746 5745 5744 5744 5743 5742 5741 5741 5740 5740 5740 5740 5740 5741 5743 5744 5742 5739 5737 5736 5734 5732 5731
5801 5794 5787 5783 5780 5777 5773 5770 5768 5765 5762 5760 5757 5754 5752 5750 5748 5747 5746 5744 5743 5742 5741 5740 5740 5739 5738 5738 5738 5737 5738 5738 5739 5742 5744 5743 5740 5738 5736 5734 5732 5730 5728
5798 5791 5783 5779 5776 5773 5769 5766 5764 5761 5758 5756 5753 5750 5748 5746 5744 5743 5742 5741 5740 5739 5738 5737 5736 5736 5735 5735 5735 5735 5735 5736 5737 5740 5741 5742 5739 5736 5734 5732 5730 5728 5726
5796 5788 5779 5775 5772 5769 5765 5763 5760 5757 5754 5752 5749 5747 5744 5742 5741 5739 5738 5737 5736 5735 5734 5733 5733 5733 5732 5732 5732 5732 5733 5733 5737 5739 5740 5740 5736 5735 5733 5731 5729 5726 5724
5794 5785 5778 5772 5768 5764 5761 5759 5756 5753 5751 5748 5745 5743 5740 5738 5737 5736 5734 5733 5732 5731 5730 5730 5729 5730 5730 5729 5729 5730 5730 5731 5732 5735 5737 5738 5736 5733 5731 5729 5727 5724 5722
5789 5783 5777 5772 5767 5763 5759 5755 5753 5750 5747 5744 5741 5739 5737 5735 5734 5732 5731 5730 5728 5727 5727 5726 5726 5726 5727 5727 5727 5728 5728 5728 5730 5733 5734 5734 5733 5730 5728 5726 5725 5722 5720
5783 5780 5776 5771 5766 5762 5758 5753 5749 5746 5743 5740 5738 5736 5734 5733 5732 5730 5729 5727 5725 5724 5723 5723 5723 5723 5724 5725 5725 5725 5725 5726 5729 5730 5731 5729 5729 5726 5724 5723 5722 5720 5719
5776 5775 5774 5769 5764 5761 5757 5751 5747 5744 5740 5737 5736 5733 5731 5730 5729 5728 5726 5724 5722 5721 5720 5720 5720 5720 5721 5722 5723 5723 5723 5725 5726 5727 5726 5725 5723 5721 5719 5718 5718 5717 5716
5773 5771 5769 5766 5761 5758 5753 5748 5745 5742 5738 5735 5733 5730 5728 5727 5726 5724 5721 5720 5719 5718 5717 5717 5717 5717 5719 5720 5720 5720 5721 5722 5723 5723 5720 5720 5717 5717 5715 5715 5714 5714 5714
5769 5766 5764 5762 5758 5754 5750 5746 5742 5739 5736 5733 5730 5727 5725 5724 5722 5720 5718 5717 5716 5715 5715 5715 5714 5714 5715 5716 5716 5716 5717 5717 5717 5717 5713 5714 5713 5713 5712 5712 5711 5711 5711
5764 5762 5759 5756 5752 5748 5744 5741 5738 5735 5732 5730 5726 5723 5721 5720 5717 5716 5714 5713 5712 5711 5711 5710 5710 5710 5710 5710 5710 5710 5711 5712 5711 5711 5709 5709 5709 5709 5708 5708 5708 5708 5708
5760 5757 5755 5751 5747 5743 5738 5734 5733 5730 5727 5725 5722 5718 5716 5714 5712 5711 5710 5708 5707 5706 5706 5705 5705 5705 5705 5705 5705 5705 5706 5706 5706 5705 5704 5704 5704 5704 5703 5704 5704 5704 5704
5755 5753 5749 5746 5742 5737 5733 5729 5727 5725 5722 5720 5717 5713 5710 5708 5706 5705 5705 5703 5702 5701 5701 5700 5700 5699 5699 5700 5699 5699 5700 5700 5700 5698 5698 5698 5698 5698 5698 5699 5699 5699 5701
5751 5747 5744 5742 5736 5731 5727 5723 5721 5718 5716 5713 5710 5707 5704 5702 5700 5699 5698 5696 5695 5695 5695 5694 5693 5691 5691 5691 5691 5691 5693 5693 5693 5693 5692 5692 5692 5692 5692 5692 5693 5694 5696
5746 5741 5737 5734 5729 5726 5722 5718 5715 5712 5709 5706 5703 5700 5698 5696 5694 5692 5691 5689 5689 5688 5688 5686 5685 5684 5682 5682 5682 5684 5685 5685 5685 5685 5685 5685 5686 5686 5685 5685 5687 5688 5690
5740 5736 5731 5727 5723 5719 5716 5712 5709 5706 5703 5699 5696 5693 5691 5690 5688 5685 5684 5682 5681 5680 5679 5677 5675 5676 5675 5675 5675 5676 5677 5678 5678 5678 5678 5678 5678 5679 5679 5679 5680 5682 5683
5735 5729 5725 5720 5716 5713 5709 5705 5700 5697 5696 5693 5690 5688 5685 5683 5680 5679 5677 5675 5674 5672 5670 5669 5667 5666 5666 5667 5665 5665 5668 5671 5671 5671 5670 5670 5669 5671 5671 5671 5672 5674 5675
5728 5723 5719 5715 5711 5707 5703 5700 5696 5693 5690 5687 5684 5681 5679 5676 5673 5672 5669 5667 5666 5664 5663 5662 5659 5657 5657 5659 5655 5652 5653 5656 5660 5663 5662 5662 5663 5663 5663 5664 5665 5666 5668
5723 5718 5714 5709 5704 5701 5697 5694 5691 5687 5683 5679 5677 5674 5672 5669 5667 5664 5661 5659 5658 5656 5655 5654 5652 5650 5648 5650 5650 5645 5642 5642 5645 5650 5652 5654 5654 5654 5655 5656 5657 5658 5660
5719 5714 5709 5703 5698 5694 5691 5687 5682 5678 5674 5672 5670 5668 5665 5663 5660 5657 5654 5651 5650 5648 5647 5646 5645 5643 5642 5640 5642 5642 5641 5639 5635 5636 5640 5643 5644 5645 5646 5648 5649 5650 5652
5714 5709 5703 5698 5692 5689 5685 5682 5677 5673 5669 5666 5663 5660 5657 5656 5653 5650 5647 5644 5642 5640 5639 5638 5637 5636 5635 5634 5633 5633 5633 5633 5633 5629 5628 5631 5633 5635 5637 5639 5641 5643 5644
5708 5702 5697 5691 5686 5683 5679 5675 5671 5666 5662 5658 5655 5652 5650 5648 5646 5643 5640 5637 5635 5633 5631 5630 5630 5629 5628 5628 5627 5626 5625 5625 5624 5624 5622 5622 5623 5626 5629 5631 5634 5636 5637